Flag for Canada Weather past 2 weeks in Rouyn-Noranda, Quebec, Canada

21 °F

Light snow. Ice fog.

Feels Like: 12 °F
Forecast: 7 / 28 °F
Wind: 8 mph from North

Location: Rouyn Airport

Current Time: Nov 27, 2015 at 7:51:54 AM

Latest Report: Nov 27, 2015 at 7:00 AM

Visibility: 1 mi

Pressure: 30.27 "Hg

Humidity: 86%

Dew point: 18 °F

Location of Rouyn-NorandaLocation

Historic Weather in Rouyn-Noranda — Graph


Rouyn-Noranda temperature yesterday

Maximum temperature yesterday: 41 °F (at 10:00 AM)
Minimum temperature yesterday: 28 °F (at 11:00 PM)
Average temperature yesterday: 38 °F

Past Weeks' High & Low Weather Summary

High55 °F (Nov 19, 8:55 AM)100% (Nov 12, 6:00 AM)30.53 "Hg (Nov 12, 6:00 AM)
Low1 °F (Nov 23, 6:00 AM)48% (Nov 17, 2:00 PM)29.28 "Hg (Nov 12, 9:00 PM)
Average30 °F82%30.03 "Hg
* Reported Nov 12 6:00 AM — Nov 27 6:00 AM, Rouyn-Noranda, Weather by CustomWeather, © 2015

Note: Actual official high and low records may vary slightly from our data, if they occured in-between our weather recording intervals... More about our weather records


Rouyn-Noranda weather history for previous 24 hours

Time TempWeatherWind HumidityBarometerVisibility
6:00 AM
Fri, Nov 27
21 °FLight snow. Ice fog.9 mph93%30.26 "Hg1 mi
5:00 AM21 °FLight snow. Ice fog.8 mph93%30.24 "Hg1 mi
4:00 AM23 °FLight snow. Low clouds.10 mph93%30.23 "Hg2 mi
3:00 AM23 °FLight snow. Low clouds.14 mph93%30.22 "Hg2 mi
2:00 AM25 °FLight snow. Low clouds.14 mph86%30.20 "Hg2 mi
1:00 AM27 °FLight snow. Low clouds.14 mph86%30.19 "Hg2 mi
12:00 AM28 °FLight snow. Low clouds.9 mph93%30.18 "Hg2 mi
11:00 PM
Thu, Nov 26
28 °FLight snow. Low clouds.9 mph100%30.16 "Hg2 mi
10:00 PM32 °FLight snow. Low clouds.9 mph93%30.17 "Hg2 mi
9:00 PM34 °FLight rain. Fog.9 mph93%30.18 "Hg5 mi
8:00 PM39 °FLight rain. Fog.9 mph100%30.17 "Hg2 mi
7:45 PM39 °FLight rain. Fog.5 mph100%30.17 "Hg2 mi
7:00 PM41 °FLight rain. Fog.5 mph93%30.18 "Hg2 mi
6:00 PM41 °FDrizzle. Low clouds.6 mph93%30.20 "Hg2 mi
5:00 PM41 °FDrizzle. Low clouds.7 mph93%30.21 "Hg2 mi
4:00 PM41 °FDrizzle. Low clouds.7 mph93%30.21 "Hg2 mi
3:00 PM41 °FDrizzle. Low clouds.8 mph93%30.21 "Hg2 mi
2:00 PM41 °FDrizzle. Low clouds.7 mph93%30.22 "Hg2 mi
1:00 PM41 °FDrizzle. Low clouds.9 mph93%30.24 "Hg3 mi
12:00 PM41 °FOvercast.12 mph93%30.24 "Hg15 mi
11:00 AM41 °FOvercast.10 mph87%30.25 "Hg15 mi
10:00 AM41 °FOvercast.12 mph87%30.25 "Hg15 mi
9:00 AM39 °FOvercast.10 mph87%30.25 "Hg15 mi
8:00 AM39 °FLight rain. Overcast.12 mph87%30.24 "Hg15 mi
7:00 AM39 °FLight rain. Overcast.13 mph87%30.23 "Hg15 mi
Weather by CustomWeather, © 2015

See weather overviewHow to use our weather pages